User: anonymous   Login
Location: La Vergne
(36.0160°N, 86.5820°W)
Time: 04:28:03
(UTC-05:00)
Language:

Cosmos 1703 Rocket - Orbit

View from above orbital plane
View from above orbital plane
View from above satellite
View from above satellite

Ground track
Ground track

The orbit data is extracted from the following two-line orbital elements,

1 16263U 85108B   14297.61051017  .00000756  00000-0  91037-4 0  8052
2 16263 082.5020 300.8653 0018670 291.4399 208.0405 14.82505454561145
Epoch (UTC): 24 October 2014 14:39:08
Eccentricity: 0.0018670
inclination: 82.5020°
perigee height: 608 km
apogee height: 634 km
right ascension of ascending node: 300.8653°
argument of perigee: 291.4399°
revolutions per day: 14.82505454
mean anomaly at epoch: 208.0405°
orbit number at epoch: 56114

The dashed part of the orbit path shows where the satellite is in the earth's shadow,  

DLR